Wind_Speed
63 64 64 65 66 67 69 70 72 73 74 75 76 75 75 74 74 74 74 73 73 72 71 71 70 70 69 69 68 69 70 70 71 72 73 74 75 76 76 76 76 76 76 77 77 77 78 78 79 79 80 80 81 81 82 82 82 83 83 83 83 83 84 84 84 81 78 78 80 82 84 85 85 86 86 84 83 84 86 88 90 91 91 90 89
64 65 66 67 68 69 71 72 74 75 76 77 76 76 75 74 74 73 73 72 71 70 70 70 69 69 69 70 70 71 71 72 73 74 74 75 75 76 76 76 77 77 77 78 78 79 80 80 81 81 81 82 82 83 83 84 84 84 85 86 85 86 87 87 87 85 82 79 79 81 83 84 84 85 86 84 83 83 83 84 85 88 90 91 91
66 67 67 69 70 71 73 74 76 76 77 77 76 76 74 73 72 71 71 70 70 69 69 70 70 70 71 71 72 72 73 74 74 75 75 76 76 76 77 77 78 78 79 80 81 81 82 82 83 83 83 84 84 85 85 85 86 86 86 87 87 88 89 89 89 89 87 84 83 83 84 85 85 85 86 86 84 84 84 83 83 84 85 88 89
68 68 70 71 72 74 75 76 77 77 77 77 76 74 72 71 70 70 70 70 70 70 70 70 71 71 72 72 73 74 74 75 75 75 76 76 77 78 78 79 80 80 81 82 82 83 84 84 85 85 85 86 86 86 86 86 86 86 86 87 87 87 88 89 89 90 90 88 86 86 86 87 87 87 88 88 87 87 87 86 84 84 84 85 87
70 71 72 73 74 75 76 77 77 77 76 75 74 72 70 70 70 70 70 70 70 70 70 71 72 73 73 74 74 75 75 75 76 76 77 78 78 79 80 81 82 82 83 84 84 84 85 85 85 85 85 85 85 84 84 84 83 83 83 83 83 84 84 85 85 86 87 87 86 86 85 86 87 87 88 90 90 89 90 89 88 86 86 85 86
72 73 74 75 75 76 77 77 77 76 75 73 71 70 69 69 70 70 70 70 70 70 71 72 73 73 74 75 75 76 77 77 78 78 79 80 80 81 82 83 84 84 84 85 85 85 85 84 84 84 83 82 81 80 79 78 78 77 76 76 76 77 77 78 79 79 80 81 81 81 81 81 82 82 83 86 88 89 90 90 89 88 88 87 86
74 75 75 76 76 77 77 77 76 74 72 71 69 69 70 70 70 70 70 70 71 71 72 73 74 74 75 76 77 78 79 79 80 81 82 82 83 84 84 85 85 85 85 85 85 84 84 83 82 81 80 78 77 76 75 74 73 72 71 71 71 71 72 72 73 74 74 75 75 76 76 76 77 78 78 79 81 83 86 88 88 87 87 87 86
75 76 76 77 77 76 76 75 74 72 70 69 69 69 70 71 71 71 71 71 72 72 73 74 75 76 77 78 79 80 81 82 83 83 84 84 85 85 85 85 84 84 84 83 83 82 80 78 77 75 74 73 72 71 70 70 70 69 69 69 70 70 70 71 71 72 73 73 73 74 74 74 74 75 77 77 78 79 81 83 84 84 84 83 83
76 76 77 76 75 74 74 73 72 70 69 68 69 70 71 71 72 72 72 73 73 74 75 76 77 78 79 80 81 82 83 83 84 84 84 85 85 85 84 83 83 82 81 79 77 76 74 72 70 69 68 67 67 67 68 68 68 68 69 70 71 71 72 73 74 75 75 75 76 76 76 75 75 76 77 78 78 79 80 81 81 81 82 80 79
77 77 76 75 73 73 72 71 70 68 68 68 69 70 71 72 72 73 74 74 75 75 76 78 79 80 81 82 82 83 83 84 84 84 84 84 83 82 81 79 78 76 75 73 71 69 67 66 65 64 64 65 66 67 67 69 70 70 71 72 73 74 75 76 76 77 78 78 78 78 77 76 76 77 78 78 78 79 80 81 81 81 81 80 78
76 76 74 73 71 70 70 69 68 67 68 69 70 71 72 72 73 74 74 75 76 77 79 80 81 81 82 82 82 82 83 83 82 82 81 80 79 77 75 73 71 70 68 66 65 64 63 63 63 64 65 66 67 68 69 70 71 72 73 73 74 75 76 76 77 77 78 78 77 77 76 75 74 75 75 75 75 76 77 79 80 80 81 80 79
75 74 72 70 69 68 68 67 67 67 68 69 70 71 72 73 73 74 75 77 78 79 80 81 81 81 81 81 81 81 81 80 79 77 76 74 73 70 68 66 65 63 62 62 62 62 62 63 63 64 65 66 67 68 69 69 70 71 71 72 73 73 74 74 75 75 75 75 73 72 72 71 70 69 70 70 69 69 71 72 75 76 77 78 77
73 71 69 68 67 67 67 67 67 68 68 69 71 72 72 73 74 76 77 78 79 80 80 80 80 80 79 79 79 78 77 76 73 71 69 67 66 63 61 61 60 60 60 61 61 62 62 62 63 63 64 65 66 66 67 67 68 68 68 69 69 70 70 71 71 72 71 71 69 67 67 67 65 64 65 66 64 64 64 65 67 69 70 72 72
70 68 67 66 66 66 66 67 67 68 68 70 71 72 73 74 76 77 78 79 79 79 79 78 78 77 76 76 75 73 72 70 67 65 63 62 61 59 59 59 59 59 60 60 60 60 60 61 61 61 62 63 64 65 66 66 66 66 67 67 67 68 68 68 69 69 69 68 67 65 64 65 64 63 63 63 62 61 61 61 62 63 64 64 64
68 66 65 65 65 65 66 67 67 68 69 70 71 72 74 75 76 77 78 78 77 76 75 74 74 73 73 72 70 67 65 64 61 60 60 59 59 58 58 58 58 58 58 58 58 58 58 59 60 61 62 63 64 66 66 66 66 66 67 67 67 67 67 67 68 68 67 67 66 65 64 64 64 63 62 63 62 61 61 60 59 60 60 59 58
65 64 64 64 65 65 66 67 68 68 69 71 72 73 74 76 77 77 76 74 73 72 71 71 71 70 69 67 64 62 61 60 59 59 59 59 58 58 57 57 57 57 57 57 57 57 58 59 60 61 62 63 64 65 66 67 66 67 67 67 67 67 66 67 67 67 67 66 66 65 64 63 63 62 61 61 60 60 60 58 57 57 57 55 53
63 63 63 64 65 66 67 67 68 69 70 72 73 74 75 75 75 73 70 69 69 68 68 68 68 66 64 62 60 59 59 59 59 58 58 58 57 57 57 56 56 56 56 56 56 57 58 59 60 61 62 63 64 65 66 67 67 68 68 68 68 67 67 67 67 67 66 66 65 65 64 63 62 61 60 59 59 59 59 57 54 54 54 51 48
62 63 64 65 65 66 67 67 69 71 72 73 74 75 74 72 69 67 66 66 66 66 66 65 64 62 61 60 59 58 58 58 58 57 57 57 57 56 56 56 55 55 55 55 56 56 57 58 59 60 61 62 63 65 66 68 69 69 70 70 69 68 68 68 68 67 66 65 64 64 63 61 60 59 57 56 56 57 57 56 54 53 51 48 45
63 64 65 65 66 67 68 69 71 72 74 74 74 72 69 66 64 63 64 64 64 64 64 63 61 60 59 59 58 57 56 57 57 57 56 57 57 56 56 55 55 55 55 55 55 56 57 58 58 60 61 62 64 65 67 69 71 72 72 72 71 70 70 69 67 66 65 63 62 61 59 58 57 55 53 52 51 51 52 52 52 52 50 47 45
64 65 65 66 67 69 70 72 73 74 74 72 69 66 63 62 62 63 63 64 64 63 62 61 60 59 58 57 56 56 56 56 56 56 56 56 56 56 56 55 55 55 55 55 55 56 57 58 58 60 61 63 65 67 69 71 72 73 74 74 73 72 71 69 66 64 63 61 59 57 56 54 52 51 49 48 47 47 48 48 49 49 49 47 46
65 66 67 68 70 71 73 74 74 73 70 66 63 62 62 62 63 63 64 64 63 61 60 59 59 57 56 56 55 55 55 55 55 56 56 56 56 56 56 55 55 55 55 55 56 57 58 58 59 61 63 64 66 69 70 72 73 73 73 73 73 71 70 67 64 61 59 57 55 53 51 49 46 45 44 43 43 43 44 45 46 48 48 46 45
67 68 70 71 73 74 74 73 70 66 62 61 61 62 62 63 63 64 64 63 62 60 59 58 57 56 55 54 54 54 54 54 54 55 56 56 56 57 57 56 56 56 56 56 57 58 59 60 61 62 64 66 68 70 71 72 71 71 71 70 69 68 66 63 60 57 55 52 50 47 44 42 40 39 39 39 39 40 41 42 44 45 46 46 45
69 71 73 74 75 73 70 66 62 60 59 60 62 62 63 64 64 63 63 62 61 59 58 57 56 55 53 53 52 53 54 54 54 55 56 56 57 58 58 58 59 59 59 59 59 60 61 62 63 65 67 69 70 72 72 71 69 68 67 66 65 63 61 59 56 53 49 46 43 40 38 37 36 35 36 36 37 38 39 40 41 41 41 42 43
73 74 74 73 71 67 63 60 59 59 60 61 62 63 64 64 63 63 62 61 59 58 57 56 55 53 53 52 52 53 53 54 55 55 56 57 58 59 60 60 61 61 61 61 62 62 63 64 65 67 69 71 73 73 71 68 66 64 63 62 61 59 57 54 50 46 42 39 37 35 35 35 35 35 36 36 37 38 39 39 39 39 39 39 39
74 73 70 67 63 60 59 59 59 60 61 62 63 64 63 63 62 62 60 59 57 56 55 55 54 53 53 53 54 54 54 55 56 57 58 59 60 60 61 62 62 63 63 63 64 64 65 66 67 69 71 72 74 72 68 64 62 61 60 59 57 54 50 46 42 39 37 36 35 35 36 37 37 38 38 38 38 39 39 39 38 39 39 38 38
70 66 63 60 59 58 58 59 60 61 62 63 63 64 63 62 61 60 58 57 56 55 54 54 54 54 54 55 55 55 56 56 57 58 59 61 61 62 62 63 63 64 64 64 64 65 66 67 68 70 71 73 73 69 64 60 59 58 56 54 50 46 42 39 37 37 37 37 37 37 38 38 38 39 39 39 39 39 39 39 38 39 40 39 38
62 60 59 59 59 59 59 60 61 62 63 63 63 63 63 61 59 57 55 55 55 55 55 55 55 55 56 56 56 56 57 58 58 59 61 62 62 63 64 64 64 64 65 65 65 65 66 67 68 70 72 73 72 66 61 58 57 55 52 47 43 40 39 38 38 38 38 38 38 38 38 39 39 39 40 40 40 41 41 40 39 40 41 41 39
58 58 59 59 60 60 60 61 62 63 63 63 63 63 62 61 59 57 55 54 55 56 56 56 57 57 58 58 58 58 58 59 59 60 62 63 63 64 65 65 65 65 66 66 65 65 66 67 68 70 72 73 70 63 58 57 55 51 46 41 40 40 40 40 40 39 38 38 38 38 39 40 41 41 41 42 42 43 43 42 41 42 42 42 42
57 58 59 60 60 61 62 62 63 63 63 63 63 63 63 62 61 59 57 56 57 58 58 59 59 60 60 61 60 60 60 60 61 62 63 64 64 65 65 66 66 66 66 67 66 66 66 67 69 70 72 72 66 59 56 54 50 45 42 40 40 40 40 40 39 39 39 39 40 40 41 41 42 42 43 43 43 43 43 43 43 43 43 43 43
58 59 60 60 61 62 63 63 64 64 63 63 64 64 64 63 63 62 60 59 59 59 60 61 62 62 62 62 62 62 62 62 63 64 64 64 64 64 65 66 66 66 67 67 66 66 67 68 69 70 72 71 64 57 54 50 45 41 41 41 40 40 39 39 39 39 40 41 41 41 41 41 42 43 43 43 43 43 43 43 43 43 43 43 43
58 59 60 61 62 63 64 64 64 65 65 64 64 64 65 65 64 64 63 62 61 61 61 62 63 63 62 62 62 62 62 63 64 65 65 65 64 64 65 66 65 65 66 66 66 66 67 68 69 70 72 69 61 55 51 46 41 40 41 41 40 39 39 39 39 40 41 41 40 40 40 41 42 42 43 42 41 41 41 41 41 42 42 41 41
59 59 60 62 63 64 64 65 65 66 66 65 65 65 66 66 65 66 66 65 64 63 62 62 63 63 62 62 62 62 63 64 65 65 65 64 64 64 65 65 65 65 66 66 66 66 67 67 68 70 71 66 59 53 48 42 39 40 41 41 40 39 38 38 39 40 40 39 39 39 39 40 41 41 41 41 40 39 39 39 39 38 38 37 37
60 61 62 62 63 64 65 66 66 66 66 66 66 67 67 67 66 67 67 67 67 66 64 63 63 63 63 62 63 63 64 65 65 64 64 64 64 65 65 64 64 65 66 65 65 66 67 67 68 70 69 64 56 50 45 40 39 40 40 40 40 39 38 38 39 39 39 38 38 38 38 38 39 40 40 40 40 38 38 37 36 35 33 33 32
61 62 63 63 64 65 65 66 66 66 66 66 67 67 67 67 67 67 68 69 68 67 65 64 63 63 63 63 64 65 65 65 65 65 65 65 65 65 64 64 64 65 65 65 65 65 66 67 68 69 67 61 54 48 43 40 39 40 40 39 39 39 38 39 39 39 39 38 37 37 37 37 38 38 38 39 38 38 37 36 34 32 31 30 30
62 63 63 64 65 65 66 66 66 66 66 66 66 66 66 67 67 68 68 68 67 65 64 63 63 63 63 64 65 65 65 65 65 65 65 65 65 65 64 64 64 64 64 65 65 65 66 67 68 68 65 58 51 46 42 39 39 39 39 39 39 38 38 38 38 38 38 37 37 37 37 36 36 37 37 37 37 37 36 35 33 32 31 30 30
63 64 64 65 65 66 66 65 65 65 65 64 64 64 64 64 64 65 65 65 64 63 63 63 63 64 65 65 65 65 65 65 65 65 65 66 65 64 64 64 64 64 64 65 65 65 66 67 67 66 61 54 48 44 40 39 39 39 39 39 39 38 38 38 38 37 37 36 36 35 35 36 36 35 36 36 36 36 36 34 32 31 31 30 31
64 65 65 66 66 66 66 65 65 65 64 63 63 62 62 62 62 63 63 63 63 63 64 64 65 66 66 66 65 65 66 66 66 66 66 66 65 64 64 65 64 64 64 64 65 65 66 66 66 63 58 51 45 41 39 38 38 38 39 39 38 37 37 37 37 37 36 36 35 35 34 35 35 35 34 35 35 36 36 34 32 31 30 31 31
65 66 66 66 66 66 66 65 65 64 64 63 63 62 62 62 62 63 64 65 65 65 65 66 66 66 66 67 67 67 67 67 66 66 67 67 66 65 65 65 64 64 64 64 65 65 65 64 63 60 54 48 43 40 38 38 38 38 38 38 37 36 36 36 37 36 36 35 35 34 34 34 35 34 34 33 34 35 35 34 32 31 30 31 31
66 66 66 66 66 66 66 65 65 65 64 64 63 63 63 63 64 64 65 66 66 66 66 66 66 67 68 69 69 69 69 68 67 67 68 68 67 67 66 66 65 64 65 65 65 64 63 62 59 56 51 46 41 38 37 37 37 37 37 36 36 36 36 36 36 36 35 35 35 34 34 34 34 34 34 33 33 33 34 33 32 31 31 30 31
66 67 67 66 66 66 65 65 65 65 65 64 64 64 64 64 64 65 66 66 66 66 67 67 68 68 69 70 71 71 70 70 69 69 69 69 69 69 68 68 66 65 65 65 63 62 60 58 55 52 48 44 39 37 36 36 36 36 36 35 34 35 35 35 35 35 35 34 34 34 34 33 33 33 33 33 32 32 33 33 32 32 31 30 30
67 67 67 66 66 66 66 66 66 66 65 65 65 64 64 65 65 66 66 67 67 68 69 70 70 71 71 72 73 73 73 72 72 72 72 71 71 71 71 69 68 66 65 63 61 59 56 54 51 49 46 41 37 36 35 35 35 35 34 34 33 34 35 35 35 34 34 34 33 33 33 33 33 32 32 32 32 31 31 32 32 32 31 30 30
67 67 66 66 66 66 66 66 66 66 65 65 65 65 66 67 68 68 69 70 71 72 73 73 74 75 76 76 77 77 76 75 75 75 75 75 75 74 72 70 68 66 63 60 58 55 53 50 49 47 43 39 36 35 34 34 34 34 33 32 33 33 34 34 34 34 33 33 33 33 33 33 33 32 31 31 31 31 31 31 31 31 30 30 30
66 66 66 66 66 66 66 66 66 66 66 66 67 68 69 69 70 71 72 73 74 75 77 78 79 79 80 80 81 81 80 79 78 78 79 79 78 75 72 69 66 63 60 57 55 52 50 47 46 44 40 36 34 33 33 33 32 32 31 32 32 33 34 34 34 33 33 32 32 32 32 32 32 32 31 31 31 30 30 30 31 31 30 30 30
65 65 65 66 66 66 66 66 66 66 67 67 68 69 70 71 72 73 75 76 78 79 81 81 82 82 83 83 84 85 84 84 84 83 82 80 78 74 70 67 64 60 57 54 52 49 47 45 44 41 37 34 33 32 32 31 31 30 30 31 32 33 33 33 33 33 32 31 31 31 31 31 31 31 31 30 30 30 30 30 30 30 30 30 30
65 65 65 65 66 66 66 66 66 67 68 69 69 70 72 73 75 77 79 80 81 82 83 84 85 86 87 88 89 89 89 88 86 83 80 77 74 71 68 65 61 58 55 52 49 47 45 43 41 37 34 33 32 32 31 31 30 29 30 31 31 32 32 32 32 32 31 31 30 30 30 30 30 30 30 30 30 30 30 29 29 29 29 29 30
65 65 66 66 66 65 65 66 67 68 69 71 72 74 76 77 79 80 81 83 84 86 87 88 89 89 89 88 87 86 85 83 80 77 74 72 70 68 65 63 59 56 53 50 47 45 43 41 38 34 32 31 31 31 30 30 29 29 30 31 31 32 32 31 31 31 30 29 29 29 29 29 29 29 30 29 29 29 29 29 28 28 28 28 29
66 66 65 65 65 65 66 67 69 70 72 74 75 77 78 79 81 83 85 86 87 87 87 86 85 84 83 83 82 80 79 77 75 72 69 67 65 63 61 59 57 54 50 47 45 43 41 38 34 31 30 29 29 29 29 29 29 29 30 31 31 31 31 31 30 30 29 29 28 28 28 28 28 28 29 29 29 29 28 28 28 28 27 28 28
65 64 64 64 65 66 67 69 71 73 74 75 77 78 81 82 84 84 84 83 82 82 81 81 81 80 79 78 77 75 74 73 71 68 65 62 60 58 56 54 53 50 47 44 42 40 38 35 31 29 28 28 28 28 28 28 29 29 30 31 31 31 30 30 30 29 28 28 28 28 28 27 27 28 28 28 28 28 28 28 27 27 27 27 28
63 63 64 65 67 68 70 71 72 73 75 77 79 80 81 80 79 78 77 77 77 77 77 75 73 71 68 66 64 63 62 62 62 61 60 57 55 52 50 49 47 45 42 40 38 37 35 32 29 27 27 27 27 27 27 27 28 29 30 30 31 30 30 30 29 29 28 28 28 28 27 27 27 27 27 27 27 27 27 27 27 26 26 26 27
63 64 65 67 68 69 70 71 73 74 76 78 77 76 74 72 72 72 72 72 71 68 66 63 61 59 57 56 54 52 51 50 50 50 50 49 48 46 44 43 41 39 37 35 35 34 31 28 27 26 26 26 26 26 26 26 27 28 29 29 30 29 29 29 29 29 28 27 27 27 27 27 27 27 27 27 27 27 27 27 26 26 26 26 26
63 64 65 66 67 68 70 72 74 74 74 72 69 67 67 68 67 66 64 61 59 57 55 54 53 52 50 48 46 44 43 41 40 40 40 39 39 39 38 36 35 33 32 32 31 29 27 26 25 25 25 25 25 25 25 26 27 27 28 28 28 29 29 29 29 29 28 28 28 28 27 27 27 28 27 27 27 27 27 27 26 26 25 25 25
Wind_Direction
297 297 296 296 296 296 297 297 298 298 299 298 298 297 297 296 296 295 295 295 294 294 294 293 293 293 292 291 290 290 289 288 288 288 288 288 288 288 289 289 289 289 289 289 288 288 287 287 287 286 286 285 285 285 284 284 284 283 283 283 282 282 281 280 279 276 274 273 273 272 272 271 271 270 269 267 266 266 266 266 266 265 264 263 262
297 297 296 296 297 297 298 299 299 299 299 298 298 297 297 296 295 295 295 295 294 294 294 293 293 293 292 292 291 290 290 290 289 289 289 289 290 290 290 290 290 289 289 289 288 288 288 287 287 286 286 286 285 285 285 285 284 284 284 284 284 284 283 282 281 280 278 276 275 274 273 272 271 271 270 269 267 266 265 264 264 265 265 264 263
298 297 298 298 299 299 299 299 299 299 298 298 297 297 296 296 295 295 295 295 294 294 294 294 294 293 292 292 291 291 291 290 290 290 290 290 290 290 290 290 290 290 289 289 289 288 288 288 287 287 287 287 286 286 286 285 285 285 285 285 285 284 284 284 283 283 281 279 278 276 275 274 273 272 271 270 269 268 267 265 264 263 263 263 263
299 299 300 300 300 300 299 299 299 298 298 297 297 297 297 296 296 295 295 295 295 295 295 294 294 293 293 292 292 291 291 291 291 291 291 290 290 290 290 290 290 290 289 289 289 289 289 288 288 288 288 288 287 287 286 286 285 285 285 285 284 284 284 284 284 283 283 282 280 279 278 277 276 274 273 272 270 269 269 268 266 265 263 262 262
300 301 301 300 300 299 299 299 298 298 298 298 297 297 297 297 296 296 296 296 295 295 295 294 293 293 293 292 292 292 291 291 291 291 291 291 291 291 291 291 290 290 290 290 290 289 289 289 289 289 288 288 288 287 287 286 286 285 285 284 284 283 283 283 283 283 283 282 281 280 279 278 277 276 275 274 272 271 270 269 268 267 266 265 263
301 301 300 300 299 299 298 298 297 297 297 297 297 297 296 296 295 295 295 295 294 294 294 293 293 293 293 293 292 292 292 292 292 292 292 292 292 292 292 291 291 291 291 290 290 290 290 290 290 290 289 289 288 288 287 287 286 286 285 284 284 283 283 283 282 282 282 282 281 280 279 279 278 277 276 276 274 273 272 271 270 269 268 266 265
300 300 299 299 298 298 297 297 296 297 297 297 296 296 295 295 295 295 294 294 294 294 294 294 294 294 294 293 293 293 293 293 293 293 293 293 292 292 292 291 291 291 291 291 291 291 291 291 291 290 290 290 289 289 288 288 287 287 287 286 286 285 284 284 283 283 282 282 282 281 280 279 278 278 277 276 276 275 274 272 271 270 269 268 267
299 299 298 298 297 297 296 296 296 296 296 296 296 295 295 295 295 294 295 295 295 295 295 295 295 294 294 294 294 294 294 294 294 294 293 293 293 292 292 292 292 292 292 292 292 291 291 291 291 290 290 290 290 289 289 289 288 288 288 288 287 286 286 285 284 284 283 283 282 281 280 280 279 279 278 277 276 276 275 274 272 271 270 268 267
298 297 297 297 296 295 295 295 295 296 296 296 295 295 295 294 295 295 295 296 296 296 296 295 295 295 295 295 295 295 295 294 294 294 293 293 292 292 292 293 293 293 293 292 292 292 291 291 291 291 290 290 290 290 290 290 290 289 289 288 288 287 287 286 286 285 284 284 283 282 282 281 280 279 279 278 277 276 276 275 274 272 271 269 268
297 296 296 295 294 294 294 294 295 295 296 295 295 294 294 294 295 295 296 296 296 296 296 296 296 295 295 295 295 295 294 294 294 293 293 293 293 293 294 294 294 293 293 293 292 292 292 292 292 291 291 291 291 291 291 291 291 290 290 289 289 288 287 287 286 286 285 285 284 284 283 282 282 281 280 279 278 277 276 275 274 273 272 270 269
295 295 294 294 293 294 294 294 295 295 295 294 294 294 294 294 295 296 296 296 296 296 296 296 296 295 295 295 295 294 294 294 294 294 294 294 294 295 295 295 294 294 293 293 293 293 293 293 292 292 292 292 292 292 291 291 291 291 291 290 290 289 289 288 288 287 287 286 286 285 285 284 283 283 282 281 279 278 277 276 275 274 272 271 269
294 294 293 293 293 294 294 294 295 295 294 294 293 294 294 295 296 296 297 297 297 296 296 296 296 296 295 295 295 295 294 294 295 295 295 295 295 295 295 294 294 293 293 293 293 293 293 293 293 293 293 293 293 293 293 292 292 292 292 292 291 291 291 290 290 289 289 288 288 288 287 287 286 285 284 283 282 281 279 278 277 276 274 272 270
293 293 293 293 294 294 294 294 294 294 293 293 294 294 295 296 296 296 296 296 296 296 296 296 296 296 296 296 295 295 295 296 296 296 296 295 295 295 295 294 294 293 293 293 293 293 294 294 294 295 295 295 295 295 294 294 294 294 294 293 293 293 292 292 292 291 291 290 290 289 289 289 288 287 286 285 284 283 281 280 279 278 277 275 273
292 292 293 294 294 293 293 293 293 293 293 294 294 295 296 296 296 296 296 296 296 296 297 296 296 296 296 296 296 297 297 297 297 297 296 295 295 295 295 294 294 294 294 294 294 295 296 296 296 297 297 297 297 297 297 296 296 296 295 295 294 294 294 294 293 293 292 292 292 291 291 290 290 288 287 287 286 285 283 281 280 280 279 278 276
292 293 293 293 293 292 292 292 292 293 294 294 295 295 296 295 295 295 296 296 297 297 297 297 297 297 297 297 298 298 298 298 297 296 296 295 295 295 295 295 295 295 296 296 297 297 298 298 298 299 299 299 299 299 298 298 297 296 296 295 295 295 295 295 294 294 293 293 293 293 292 291 291 290 289 288 287 286 284 283 282 282 281 279 278
292 292 293 292 291 291 291 292 292 293 294 294 295 295 295 295 295 296 296 297 297 297 297 297 297 297 298 299 299 299 298 297 297 297 297 297 297 297 297 297 298 298 298 298 299 299 300 300 300 300 300 300 300 300 300 299 298 298 297 296 296 295 295 295 294 294 294 294 294 293 292 292 291 290 289 288 287 285 284 283 283 283 282 281 280
292 292 291 291 290 291 291 292 293 293 294 294 295 295 295 295 296 296 297 297 297 297 297 297 298 299 299 300 299 299 298 298 298 298 299 299 299 300 300 300 300 300 300 300 301 301 301 301 301 301 301 301 301 301 301 301 300 299 298 298 297 296 296 295 295 295 295 295 294 294 293 293 291 290 289 288 287 285 284 283 282 281 281 281 280
291 290 290 290 290 291 292 292 293 293 294 295 295 295 295 296 296 296 296 296 297 297 298 299 300 300 300 299 299 299 299 299 300 300 301 301 302 302 302 302 302 302 302 302 302 302 302 302 302 302 302 302 303 303 303 302 302 301 300 299 298 297 296 296 295 295 295 294 294 294 293 292 291 290 289 288 286 286 285 285 284 283 282 282 280
289 289 290 291 291 292 292 293 294 295 295 295 295 295 295 295 295 296 296 297 297 298 299 300 300 300 299 299 299 299 300 300 301 302 303 303 303 304 304 304 304 304 304 304 303 303 303 303 303 304 304 304 305 305 304 304 303 302 301 300 299 298 297 296 296 295 294 294 293 292 291 290 289 287 286 284 283 282 282 283 284 284 285 285 284
289 290 291 292 292 293 294 295 295 295 295 295 295 295 295 295 296 296 297 298 299 300 300 300 300 299 299 299 299 300 301 301 302 303 304 304 305 306 306 306 306 305 305 305 305 305 305 305 306 306 306 307 307 307 306 305 304 303 302 301 300 299 298 297 297 296 295 294 293 292 290 289 287 284 282 280 278 277 278 279 280 281 283 284 284
291 292 292 293 294 295 295 295 295 295 295 294 294 294 295 295 296 297 297 298 299 299 299 299 299 298 298 299 300 300 301 302 303 303 304 305 306 307 308 308 308 307 307 307 307 307 307 307 308 308 308 309 309 309 308 307 305 304 303 302 302 301 300 300 299 298 297 296 295 293 291 289 286 283 281 278 276 275 275 277 278 279 280 281 280
292 293 294 295 296 296 295 295 294 293 293 293 294 294 295 296 297 297 297 298 298 298 298 298 298 298 298 299 299 300 301 302 303 304 305 306 308 309 309 310 310 309 309 309 309 310 310 310 310 310 311 311 311 311 310 308 306 304 303 303 303 303 302 302 301 300 299 298 296 295 292 289 285 282 280 278 276 275 275 276 277 278 279 280 279
293 294 295 296 296 295 294 293 293 293 293 294 294 295 296 296 296 296 297 297 297 297 297 297 297 297 298 298 299 299 300 302 303 305 307 308 309 311 312 312 312 312 312 312 312 312 311 312 312 313 313 314 314 313 312 309 307 305 304 304 304 303 303 303 302 301 300 299 298 296 293 290 287 285 283 282 281 280 280 279 279 280 280 280 280
295 296 296 295 294 293 292 292 292 293 293 294 294 295 295 295 296 296 296 296 297 297 297 296 296 296 297 297 298 299 300 302 304 306 307 309 310 312 313 313 313 313 313 313 313 313 313 313 314 315 316 316 316 315 313 310 307 306 305 305 304 304 303 303 302 302 302 301 300 298 296 294 293 291 290 289 288 287 287 285 285 284 283 283 282
295 295 294 293 292 292 292 292 293 293 293 294 294 295 295 295 295 295 296 296 296 296 296 295 295 295 296 296 297 299 300 302 304 306 307 308 310 311 312 313 313 313 314 314 313 313 313 313 315 316 318 318 318 316 312 309 308 307 305 305 304 303 302 302 302 303 302 302 301 300 298 297 296 295 294 293 293 292 291 290 289 288 287 285 284
294 293 292 291 291 291 292 292 292 293 293 294 294 294 294 294 295 296 296 296 295 295 294 294 294 295 296 297 298 299 301 302 304 305 306 307 309 310 311 312 313 313 313 313 313 313 313 314 316 318 319 319 318 315 312 309 308 306 305 304 303 302 302 302 302 302 302 301 301 300 299 298 297 297 297 296 296 295 294 293 292 291 290 288 286
292 291 291 291 291 292 292 292 292 292 293 293 294 294 294 294 295 296 296 295 294 293 293 293 294 295 296 297 298 300 301 302 303 304 304 306 307 308 309 310 311 312 312 312 312 312 312 314 316 318 319 319 318 315 311 310 308 306 305 304 302 302 302 302 302 301 301 301 301 300 300 300 300 300 300 299 299 297 296 295 293 291 290 289 287
290 290 291 291 291 292 291 291 292 292 293 293 293 294 294 294 295 295 294 293 292 292 292 292 293 294 295 296 297 298 299 301 302 302 303 305 306 306 307 308 309 310 310 310 311 312 312 314 316 318 319 320 318 314 312 311 308 306 304 302 302 302 302 302 302 302 302 303 303 303 303 303 302 302 302 301 300 298 297 296 294 292 290 288 287
289 290 291 291 291 291 291 291 292 292 293 293 293 293 293 293 293 294 293 292 291 291 290 291 291 292 293 294 295 296 297 299 300 301 302 303 304 304 305 306 308 309 309 310 311 312 312 314 316 317 319 320 317 313 312 310 307 303 302 301 301 302 301 302 303 304 305 305 304 304 303 303 303 302 302 301 300 299 298 296 294 292 290 288 286
289 290 291 291 291 291 291 292 292 292 292 292 292 292 292 292 292 292 292 291 291 290 290 290 290 291 291 293 294 295 296 297 298 299 300 301 302 303 304 305 307 308 308 309 310 311 312 314 316 317 319 319 316 313 312 308 303 301 301 301 301 302 302 303 304 304 304 304 303 303 303 303 303 303 302 302 302 301 299 297 295 292 290 288 287
290 290 290 290 291 291 292 292 292 292 292 292 292 291 291 291 291 291 291 291 291 291 291 290 290 290 291 292 294 295 296 296 297 298 299 300 301 302 303 304 306 306 307 308 310 310 311 313 315 317 319 318 315 312 310 305 300 299 301 302 302 302 302 303 304 303 302 302 302 303 303 303 303 303 303 303 302 301 299 297 295 293 291 289 287
289 290 290 290 291 291 291 291 291 291 291 291 291 291 290 290 290 290 290 290 291 291 291 291 290 290 291 292 293 294 295 296 296 297 298 299 300 301 302 303 304 304 305 307 308 309 310 312 314 316 318 317 314 311 308 301 298 300 301 301 302 302 302 303 303 302 301 301 302 303 304 304 304 304 304 305 304 303 300 298 295 293 291 290 288
289 289 289 290 290 290 290 290 290 290 291 291 291 290 290 289 289 289 289 289 291 292 292 290 289 289 290 291 292 293 294 295 295 295 297 298 299 299 301 302 302 303 304 306 307 308 309 311 313 316 316 315 312 309 305 298 297 300 301 300 301 302 302 303 303 302 302 303 304 305 305 305 306 306 307 307 307 305 303 299 296 293 291 289 288
288 288 289 289 289 289 289 289 290 290 290 290 290 290 289 288 288 287 288 289 291 292 291 289 288 287 289 290 292 293 293 294 294 295 296 297 297 298 299 300 300 301 303 304 305 307 309 310 312 315 315 313 310 307 301 297 298 300 300 300 301 301 302 304 303 303 304 305 306 307 307 307 308 308 308 309 309 308 306 302 297 293 290 289 289
287 287 287 287 288 288 288 289 289 290 290 290 290 289 289 288 287 287 288 289 290 290 289 287 286 287 288 290 291 291 292 292 293 294 295 295 296 298 298 298 299 300 302 303 305 306 308 309 312 313 313 311 308 303 298 296 298 300 300 300 301 301 303 304 304 304 306 307 307 308 308 309 309 309 309 310 310 310 308 304 299 294 290 290 290
285 286 286 286 286 287 288 288 289 289 289 290 290 289 289 289 288 288 289 289 289 288 287 286 286 286 287 288 289 289 290 291 292 293 294 294 296 297 297 297 298 300 301 302 304 305 307 308 310 311 310 308 304 300 296 295 298 299 299 299 300 301 303 304 304 305 307 307 308 308 309 309 309 309 309 310 311 311 310 306 301 296 292 290 290
285 285 285 285 286 286 287 288 289 289 290 290 290 290 290 290 289 289 288 287 286 286 286 286 286 286 287 287 288 288 289 290 291 292 293 294 295 295 295 296 297 299 300 302 303 304 306 307 309 309 308 305 301 296 293 295 297 298 298 299 299 301 302 304 305 306 307 307 308 308 308 309 310 309 309 310 311 313 312 308 302 297 293 291 291
284 285 285 285 286 286 287 288 288 289 289 290 290 290 289 289 288 287 286 286 286 286 286 286 286 286 287 287 288 288 289 290 291 292 292 293 294 294 294 295 297 298 299 301 302 303 304 306 307 306 305 302 297 292 291 294 296 297 297 298 299 301 303 304 305 306 307 308 308 308 308 310 310 310 309 309 311 312 313 310 304 297 293 292 293
285 285 285 285 286 287 287 288 288 288 289 288 288 288 287 287 286 286 285 285 285 285 285 285 285 286 286 286 287 288 288 289 290 291 292 293 294 294 294 295 297 298 299 300 301 302 303 304 304 303 302 299 294 289 290 293 295 296 296 297 299 302 304 304 305 306 307 307 307 307 308 310 311 311 310 309 310 311 313 311 306 300 295 293 294
285 285 286 286 287 287 288 288 288 288 288 287 287 287 287 286 285 285 284 284 284 284 285 285 285 285 285 285 286 287 288 289 290 291 291 292 293 293 294 295 296 296 297 298 299 300 301 301 300 299 299 296 290 286 288 292 294 295 296 298 300 303 304 304 304 305 306 306 306 306 307 309 311 312 311 310 309 310 312 312 309 304 298 295 295
286 286 287 287 287 287 288 288 288 287 287 287 287 286 286 285 285 284 284 284 284 285 285 285 286 286 285 285 286 287 288 288 289 290 291 291 291 292 292 293 294 295 295 296 297 298 298 297 296 296 295 291 285 284 287 291 292 294 295 298 301 303 303 304 304 304 304 305 305 304 306 308 310 312 312 311 309 309 311 313 312 308 303 299 298
286 287 287 288 288 288 288 287 287 287 286 286 286 285 285 284 284 284 285 285 285 286 286 286 286 286 286 286 286 287 287 288 288 289 289 289 290 290 291 291 292 292 293 293 294 294 294 293 293 293 292 286 282 282 286 289 291 293 296 299 302 303 303 304 304 304 304 304 304 304 304 306 309 311 312 312 310 309 310 312 314 312 309 305 303
287 288 288 288 288 288 287 287 286 286 285 285 284 284 284 284 284 284 285 285 285 285 286 286 285 285 285 285 285 286 286 286 287 287 288 288 288 288 288 288 289 290 290 291 291 291 290 289 290 290 287 282 279 282 286 288 290 293 296 300 302 303 303 304 304 304 303 303 304 303 303 304 307 310 312 313 312 311 310 311 313 315 314 311 308
288 288 288 288 288 287 286 286 285 285 285 285 285 285 285 285 285 285 285 285 285 285 285 285 285 284 284 284 284 284 285 285 286 286 286 286 285 285 285 285 286 286 287 287 288 287 287 286 287 286 282 278 278 282 285 287 289 293 297 300 302 303 304 304 304 303 302 303 303 302 301 302 304 307 310 312 313 312 311 310 312 315 316 316 313
289 289 288 288 287 286 286 285 286 286 286 286 286 286 286 287 287 287 287 287 286 286 286 285 285 284 284 284 284 284 284 284 284 283 283 282 282 282 282 282 282 283 283 284 284 284 283 283 283 282 277 275 277 281 284 286 290 294 298 301 302 303 304 304 304 302 301 302 303 302 300 300 301 304 307 310 312 313 312 311 311 313 316 317 316
289 289 288 287 287 286 286 286 287 288 288 288 289 289 289 289 289 289 288 288 288 287 287 286 286 285 285 284 284 283 283 282 281 280 279 278 278 278 278 278 279 279 280 280 281 280 280 280 279 276 272 272 276 280 282 286 291 295 299 301 302 303 303 304 303 302 301 301 302 302 301 300 299 301 304 307 309 311 312 312 311 311 313 316 318
289 289 288 288 287 287 287 288 289 289 290 290 290 290 290 290 290 290 290 290 289 289 288 288 287 286 285 284 283 282 280 279 278 277 275 274 274 273 274 274 275 275 276 276 276 276 276 276 274 269 267 269 273 277 281 286 291 296 299 301 301 302 304 304 304 303 302 301 302 303 303 302 300 299 300 303 306 308 310 312 312 312 312 314 317
289 289 289 288 288 289 289 290 291 291 291 292 292 292 292 292 292 292 292 291 291 291 290 289 288 287 285 284 282 280 278 276 275 273 271 270 269 269 269 270 270 271 272 272 271 271 272 270 266 262 263 267 271 274 279 285 291 295 298 299 301 302 304 304 304 304 303 302 302 303 304 304 302 300 299 299 302 305 307 309 311 313 313 313 315
289 288 288 289 289 290 291 292 292 293 293 293 294 294 294 294 294 294 294 293 293 292 292 291 289 288 286 284 282 280 278 275 273 270 268 266 265 264 264 265 266 266 267 266 266 266 266 262 258 258 262 265 269 273 279 285 290 294 297 298 300 302 304 304 304 304 303 303 303 303 304 305 305 303 300 299 298 300 303 305 308 311 313 313 314
288 289 289 290 291 292 293 293 294 294 295 295 296 296 295 295 295 296 296 295 295 294 293 292 290 288 286 284 282 280 278 275 272 268 264 262 260 259 259 260 261 261 261 260 260 260 257 254 252 256 261 264 268 274 280 286 290 293 295 297 300 302 304 304 304 304 304 304 304 304 304 305 305 305 304 301 298 297 299 301 305 308 310 312 313
290 290 291 292 293 293 294 295 296 296 297 297 297 296 296 297 299 299 298 297 297 296 295 293 291 289 286 284 281 279 277 274 270 265 261 257 255 254 254 254 255 255 254 254 253 251 248 247 250 255 260 264 269 275 281 286 290 292 294 297 300 303 304 305 305 304 304 304 303 304 305 305 305 305 305 304 302 298 297 298 301 304 306 309 311
Height
5709 5706 5703 5700 5698 5695 5692 5689 5686 5683 5679 5676 5672 5669 5666 5663 5660 5657 5654 5652 5649 5646 5643 5640 5637 5635 5632 5629 5627 5624 5622 5619 5617 5614 5612 5609 5607 5604 5601 5598 5596 5593 5590 5588 5585 5583 5580 5577 5574 5572 5570 5567 5565 5562 5560 5558 5555 5554 5551 5549 5548 5545 5543 5541 5540 5546 5552 5550 5548 5546 5541 5540 5543 5540 5541 5548 5550 5547 5546 5547 5547 5549 5551 5553 5555
5700 5697 5694 5692 5689 5686 5683 5680 5676 5673 5670 5666 5663 5660 5657 5654 5651 5648 5645 5642 5640 5637 5634 5631 5628 5625 5623 5620 5618 5615 5613 5610 5607 5605 5602 5600 5597 5594 5591 5588 5586 5583 5580 5577 5575 5572 5569 5566 5563 5561 5559 5556 5553 5550 5548 5546 5543 5541 5539 5536 5535 5532 5528 5527 5525 5527 5534 5538 5536 5534 5529 5526 5528 5527 5524 5528 5535 5533 5533 5535 5536 5535 5535 5536 5538
5691 5688 5685 5682 5679 5676 5673 5670 5667 5663 5660 5657 5653 5651 5648 5645 5642 5639 5636 5633 5631 5628 5625 5622 5619 5616 5614 5611 5609 5606 5604 5601 5598 5596 5593 5590 5587 5584 5581 5578 5575 5573 5570 5566 5564 5561 5558 5555 5552 5549 5547 5544 5541 5538 5535 5533 5531 5528 5526 5523 5521 5519 5515 5512 5510 5510 5513 5520 5522 5519 5517 5513 5513 5514 5510 5511 5516 5517 5516 5520 5523 5523 5522 5521 5522
5681 5678 5675 5672 5669 5666 5663 5660 5657 5653 5650 5647 5644 5641 5638 5636 5632 5629 5626 5624 5621 5619 5616 5613 5610 5607 5605 5602 5600 5597 5594 5592 5589 5586 5584 5580 5577 5574 5571 5568 5565 5562 5559 5555 5552 5549 5546 5543 5540 5537 5534 5531 5528 5525 5522 5520 5518 5515 5513 5511 5508 5506 5503 5499 5497 5495 5495 5501 5505 5503 5501 5499 5498 5499 5497 5495 5499 5501 5499 5502 5506 5507 5508 5508 5508
5672 5669 5666 5663 5660 5657 5654 5650 5647 5643 5641 5638 5634 5632 5629 5626 5623 5620 5617 5615 5612 5610 5607 5604 5601 5598 5596 5593 5590 5587 5585 5582 5579 5577 5574 5571 5567 5564 5561 5557 5554 5550 5547 5544 5541 5537 5534 5531 5528 5524 5521 5518 5515 5512 5509 5506 5504 5502 5500 5498 5496 5493 5491 5487 5484 5482 5480 5482 5486 5487 5486 5483 5481 5481 5481 5479 5481 5484 5483 5483 5487 5490 5491 5492 5494
5663 5660 5657 5654 5651 5648 5644 5641 5637 5634 5632 5629 5625 5622 5619 5616 5614 5611 5609 5607 5604 5602 5599 5596 5593 5590 5587 5583 5580 5577 5575 5572 5569 5566 5563 5560 5557 5553 5550 5546 5543 5539 5535 5532 5529 5525 5522 5519 5516 5512 5509 5506 5502 5499 5497 5494 5492 5490 5488 5486 5484 5481 5479 5476 5472 5470 5469 5468 5469 5471 5471 5469 5466 5466 5465 5464 5464 5465 5465 5466 5469 5472 5473 5475 5478
5655 5652 5649 5646 5642 5639 5635 5632 5628 5626 5623 5620 5617 5614 5611 5608 5605 5602 5600 5598 5596 5593 5590 5587 5584 5580 5577 5573 5570 5567 5564 5561 5558 5555 5552 5549 5545 5542 5539 5535 5531 5527 5524 5521 5517 5514 5511 5507 5504 5501 5497 5494 5491 5487 5485 5483 5481 5479 5477 5474 5472 5470 5467 5465 5462 5459 5458 5457 5456 5456 5457 5456 5454 5452 5452 5451 5450 5449 5448 5448 5452 5455 5455 5457 5460
5646 5644 5640 5637 5634 5630 5626 5623 5620 5617 5614 5611 5608 5605 5602 5599 5596 5594 5591 5589 5587 5584 5581 5578 5574 5571 5567 5563 5560 5556 5553 5550 5547 5544 5541 5537 5533 5530 5527 5524 5520 5516 5513 5510 5506 5503 5500 5497 5493 5490 5487 5483 5480 5477 5474 5472 5470 5469 5467 5464 5461 5459 5456 5454 5452 5449 5447 5446 5445 5444 5444 5445 5444 5441 5440 5438 5438 5437 5434 5432 5435 5438 5438 5441 5443
5638 5635 5632 5629 5625 5621 5618 5614 5611 5609 5606 5603 5599 5596 5593 5590 5587 5584 5582 5580 5577 5574 5571 5568 5565 5561 5557 5553 5549 5546 5542 5539 5536 5533 5529 5525 5522 5519 5516 5513 5509 5506 5502 5499 5495 5492 5489 5487 5484 5481 5477 5474 5470 5468 5464 5462 5460 5459 5457 5454 5451 5448 5446 5443 5440 5438 5436 5435 5434 5432 5431 5433 5433 5430 5428 5427 5425 5425 5422 5419 5420 5421 5421 5425 5428
5629 5626 5623 5620 5616 5613 5609 5606 5603 5601 5598 5594 5591 5587 5584 5581 5578 5575 5573 5570 5568 5565 5562 5558 5555 5551 5547 5543 5539 5535 5532 5529 5525 5522 5518 5515 5512 5509 5506 5503 5499 5496 5493 5489 5486 5483 5480 5478 5475 5472 5469 5465 5462 5459 5456 5453 5451 5449 5446 5443 5440 5437 5435 5432 5429 5426 5424 5423 5422 5420 5419 5421 5420 5417 5416 5415 5413 5411 5409 5406 5406 5407 5406 5409 5413
5620 5617 5614 5611 5608 5604 5601 5597 5595 5593 5589 5585 5582 5578 5575 5572 5570 5567 5564 5561 5558 5555 5552 5548 5544 5541 5537 5533 5529 5525 5521 5518 5515 5511 5508 5504 5502 5499 5497 5494 5490 5487 5483 5480 5477 5475 5472 5469 5467 5464 5460 5457 5453 5450 5447 5445 5442 5439 5436 5433 5430 5426 5423 5420 5418 5415 5412 5410 5410 5409 5407 5408 5408 5405 5402 5402 5400 5399 5397 5393 5392 5392 5392 5394 5398
5611 5608 5605 5602 5599 5595 5592 5589 5586 5584 5581 5577 5574 5570 5567 5564 5561 5558 5554 5551 5548 5545 5541 5538 5534 5530 5526 5522 5519 5515 5510 5508 5505 5502 5499 5495 5492 5491 5489 5485 5482 5479 5475 5472 5470 5467 5465 5462 5458 5455 5451 5448 5444 5441 5438 5436 5433 5430 5427 5424 5420 5416 5413 5409 5406 5403 5400 5398 5399 5399 5396 5394 5396 5394 5389 5387 5388 5387 5384 5381 5379 5378 5378 5380 5383
5602 5599 5596 5593 5590 5586 5583 5580 5578 5575 5572 5568 5565 5561 5558 5555 5552 5548 5545 5541 5538 5535 5531 5527 5523 5519 5516 5512 5509 5505 5501 5498 5496 5493 5490 5487 5484 5482 5481 5477 5475 5472 5468 5465 5462 5459 5456 5453 5450 5446 5442 5439 5435 5432 5429 5427 5424 5421 5418 5415 5411 5407 5404 5400 5396 5392 5390 5388 5389 5389 5386 5383 5384 5384 5379 5375 5376 5376 5373 5371 5368 5366 5367 5368 5370
5593 5590 5587 5584 5581 5577 5574 5572 5569 5566 5563 5560 5556 5553 5549 5546 5543 5539 5535 5532 5528 5525 5521 5517 5513 5510 5506 5503 5499 5496 5492 5489 5487 5484 5481 5479 5476 5474 5473 5470 5467 5464 5461 5457 5454 5451 5448 5445 5441 5438 5434 5430 5426 5423 5420 5418 5415 5413 5409 5406 5402 5399 5395 5392 5387 5383 5381 5379 5379 5379 5377 5373 5372 5373 5370 5365 5365 5364 5362 5361 5359 5357 5357 5358 5359
5585 5582 5579 5576 5572 5569 5566 5563 5560 5558 5555 5552 5548 5545 5541 5537 5533 5529 5526 5522 5518 5515 5511 5508 5504 5501 5497 5494 5491 5488 5484 5481 5479 5477 5473 5471 5469 5467 5465 5462 5459 5456 5453 5450 5447 5444 5440 5437 5433 5430 5426 5422 5418 5414 5411 5409 5406 5404 5400 5397 5394 5391 5388 5384 5379 5375 5373 5371 5369 5369 5367 5364 5361 5361 5360 5356 5354 5353 5351 5350 5350 5348 5348 5349 5351
5576 5574 5570 5567 5564 5561 5558 5555 5552 5550 5547 5544 5540 5537 5533 5529 5524 5521 5517 5513 5509 5506 5503 5499 5496 5492 5489 5486 5483 5481 5477 5473 5471 5469 5466 5463 5461 5459 5457 5454 5452 5449 5445 5442 5439 5436 5432 5428 5425 5422 5418 5414 5410 5406 5402 5399 5397 5394 5391 5388 5385 5382 5380 5375 5370 5368 5366 5363 5361 5359 5357 5355 5352 5351 5350 5347 5345 5342 5340 5341 5342 5339 5338 5340 5343
5568 5565 5562 5558 5556 5553 5550 5548 5545 5541 5538 5535 5532 5528 5524 5520 5516 5513 5509 5505 5502 5498 5495 5492 5488 5485 5482 5478 5476 5473 5470 5466 5464 5461 5458 5456 5454 5452 5450 5447 5444 5441 5438 5435 5432 5429 5425 5421 5418 5414 5411 5407 5402 5398 5394 5390 5387 5384 5381 5379 5376 5374 5370 5366 5363 5361 5357 5354 5352 5349 5347 5345 5343 5341 5340 5338 5335 5331 5329 5333 5333 5330 5330 5333 5335
5559 5556 5553 5551 5548 5546 5543 5540 5536 5533 5530 5527 5523 5519 5516 5512 5509 5505 5501 5498 5495 5491 5488 5484 5481 5478 5474 5471 5468 5466 5463 5459 5456 5454 5451 5448 5446 5444 5442 5440 5437 5434 5431 5428 5425 5422 5418 5415 5411 5407 5404 5400 5395 5391 5386 5382 5378 5375 5371 5368 5367 5364 5361 5357 5354 5352 5349 5346 5344 5341 5339 5336 5334 5332 5331 5328 5326 5322 5319 5322 5323 5321 5322 5325 5326
5550 5548 5545 5543 5541 5538 5535 5531 5527 5524 5521 5518 5514 5510 5508 5504 5501 5498 5494 5491 5488 5484 5480 5477 5474 5470 5467 5464 5462 5459 5457 5453 5449 5447 5444 5441 5439 5437 5435 5433 5430 5427 5424 5422 5419 5415 5412 5408 5404 5400 5396 5392 5388 5384 5379 5374 5369 5365 5361 5358 5355 5353 5350 5347 5345 5342 5339 5338 5336 5332 5330 5328 5325 5324 5323 5321 5319 5316 5313 5313 5313 5312 5314 5317 5317
5542 5540 5538 5535 5532 5529 5526 5522 5518 5515 5512 5508 5505 5502 5500 5497 5494 5490 5487 5483 5480 5477 5473 5469 5466 5463 5461 5458 5455 5452 5450 5447 5443 5440 5438 5435 5432 5430 5428 5425 5423 5420 5418 5415 5412 5408 5405 5401 5397 5393 5389 5385 5381 5376 5372 5366 5360 5356 5351 5347 5344 5341 5338 5337 5335 5332 5329 5328 5326 5323 5321 5319 5317 5315 5315 5313 5312 5310 5308 5308 5307 5306 5307 5309 5309
5534 5532 5529 5526 5523 5520 5516 5513 5509 5506 5503 5500 5498 5495 5492 5489 5486 5482 5479 5475 5472 5469 5466 5462 5459 5457 5454 5451 5448 5445 5443 5441 5437 5434 5431 5428 5425 5423 5421 5418 5416 5413 5411 5408 5404 5401 5397 5394 5390 5386 5382 5378 5374 5369 5364 5358 5352 5347 5342 5337 5333 5330 5327 5325 5324 5322 5319 5318 5316 5314 5312 5310 5308 5307 5306 5306 5305 5304 5303 5303 5302 5301 5301 5302 5303
5525 5523 5520 5517 5514 5510 5507 5503 5500 5498 5495 5493 5490 5487 5484 5481 5478 5475 5471 5468 5465 5462 5459 5455 5452 5450 5448 5445 5442 5439 5436 5434 5432 5428 5425 5422 5419 5416 5414 5411 5409 5406 5404 5401 5397 5394 5390 5386 5383 5379 5375 5370 5366 5360 5355 5349 5344 5339 5334 5329 5325 5321 5318 5316 5314 5312 5311 5309 5307 5305 5303 5302 5301 5300 5299 5299 5298 5298 5297 5297 5296 5295 5295 5295 5295
5516 5513 5511 5507 5504 5501 5497 5495 5492 5490 5488 5485 5482 5480 5477 5473 5470 5467 5463 5460 5457 5454 5451 5448 5445 5443 5441 5439 5436 5433 5430 5428 5425 5422 5419 5415 5413 5410 5407 5404 5401 5398 5396 5394 5390 5386 5383 5379 5375 5371 5367 5362 5357 5352 5346 5340 5335 5331 5326 5322 5318 5314 5311 5308 5306 5304 5303 5301 5299 5298 5296 5295 5294 5294 5293 5292 5292 5291 5291 5291 5290 5290 5289 5289 5288
5506 5504 5501 5498 5495 5492 5489 5487 5485 5482 5480 5478 5475 5472 5469 5466 5462 5459 5455 5452 5450 5447 5444 5441 5438 5437 5435 5433 5430 5428 5425 5421 5418 5415 5412 5409 5406 5403 5400 5397 5394 5391 5388 5386 5382 5379 5375 5371 5367 5363 5359 5353 5348 5343 5337 5332 5327 5323 5319 5315 5311 5308 5305 5302 5300 5298 5296 5295 5293 5292 5291 5289 5289 5288 5287 5286 5286 5285 5284 5284 5284 5283 5283 5282 5282
5497 5494 5491 5489 5486 5484 5482 5479 5477 5475 5472 5470 5467 5464 5461 5458 5454 5451 5448 5444 5442 5439 5437 5434 5432 5430 5428 5426 5424 5422 5419 5416 5412 5409 5405 5402 5400 5397 5394 5391 5387 5384 5381 5378 5375 5371 5367 5363 5359 5355 5350 5345 5340 5335 5330 5325 5320 5316 5312 5309 5305 5301 5299 5297 5295 5293 5292 5290 5289 5288 5286 5285 5283 5282 5282 5281 5280 5279 5278 5278 5277 5276 5276 5275 5275
5487 5485 5482 5480 5478 5476 5474 5472 5469 5466 5464 5461 5459 5456 5453 5449 5446 5443 5440 5437 5434 5432 5430 5427 5426 5423 5421 5419 5417 5415 5412 5410 5406 5403 5399 5396 5393 5390 5387 5384 5380 5377 5374 5371 5368 5364 5360 5356 5352 5348 5343 5338 5332 5327 5323 5319 5314 5310 5306 5303 5299 5296 5294 5293 5291 5289 5288 5286 5285 5283 5281 5280 5279 5277 5276 5275 5274 5273 5272 5272 5271 5270 5268 5268 5269
5478 5476 5474 5472 5470 5468 5466 5464 5461 5458 5455 5453 5450 5447 5444 5441 5438 5436 5433 5429 5427 5425 5423 5421 5419 5417 5414 5412 5410 5408 5405 5402 5399 5396 5392 5390 5387 5384 5381 5378 5374 5371 5368 5365 5362 5358 5354 5349 5345 5341 5336 5331 5325 5320 5316 5312 5308 5304 5300 5297 5294 5292 5290 5288 5287 5285 5283 5282 5280 5278 5277 5275 5273 5272 5270 5269 5268 5266 5265 5265 5265 5263 5262 5261 5262
5470 5468 5466 5464 5462 5460 5458 5455 5453 5450 5447 5444 5441 5438 5436 5433 5431 5429 5426 5423 5420 5418 5416 5414 5412 5409 5407 5405 5403 5401 5398 5395 5392 5388 5385 5383 5380 5377 5374 5371 5368 5365 5361 5358 5356 5352 5347 5343 5339 5335 5330 5325 5319 5314 5310 5305 5301 5298 5295 5293 5290 5288 5286 5284 5282 5280 5279 5277 5275 5273 5272 5270 5268 5266 5265 5263 5262 5260 5259 5258 5258 5257 5256 5255 5255
5462 5460 5458 5456 5454 5452 5449 5446 5444 5442 5439 5436 5433 5430 5428 5425 5423 5421 5419 5416 5413 5411 5409 5407 5405 5402 5400 5398 5396 5393 5391 5388 5385 5381 5378 5376 5373 5370 5367 5364 5361 5358 5354 5351 5348 5345 5340 5337 5333 5328 5323 5318 5313 5309 5304 5300 5296 5293 5290 5289 5287 5285 5282 5280 5278 5276 5274 5272 5270 5268 5267 5265 5263 5261 5260 5258 5256 5254 5253 5252 5251 5250 5249 5248 5248
5455 5453 5451 5448 5445 5443 5440 5437 5435 5432 5430 5428 5425 5422 5420 5417 5415 5414 5411 5409 5406 5404 5402 5400 5397 5395 5392 5390 5388 5385 5383 5381 5377 5374 5372 5369 5365 5362 5359 5356 5354 5351 5346 5343 5340 5337 5333 5330 5326 5322 5317 5312 5307 5303 5299 5295 5292 5289 5286 5284 5283 5281 5278 5276 5274 5271 5269 5267 5266 5264 5262 5260 5258 5256 5255 5253 5251 5249 5247 5245 5244 5243 5242 5241 5240
5447 5445 5443 5440 5437 5434 5431 5428 5425 5423 5420 5418 5416 5414 5411 5409 5407 5405 5403 5401 5398 5396 5394 5392 5389 5387 5384 5382 5380 5378 5375 5372 5369 5366 5364 5361 5358 5355 5352 5349 5346 5343 5339 5336 5333 5330 5326 5323 5319 5315 5310 5305 5301 5298 5294 5291 5288 5286 5283 5280 5278 5276 5274 5272 5269 5268 5266 5264 5261 5259 5257 5256 5254 5251 5249 5248 5246 5244 5241 5239 5237 5236 5234 5233 5233
5438 5436 5434 5431 5428 5425 5422 5419 5416 5414 5411 5409 5407 5405 5403 5401 5399 5397 5394 5392 5390 5388 5386 5383 5381 5378 5376 5374 5372 5370 5367 5364 5361 5359 5356 5353 5350 5347 5344 5342 5339 5335 5332 5330 5327 5323 5319 5316 5313 5309 5304 5300 5296 5292 5289 5286 5284 5282 5279 5276 5274 5272 5270 5268 5265 5263 5262 5260 5257 5255 5253 5251 5249 5246 5244 5242 5240 5238 5235 5233 5231 5229 5228 5227 5226
5428 5426 5424 5422 5419 5416 5413 5410 5408 5405 5402 5400 5398 5396 5394 5392 5390 5388 5385 5383 5381 5379 5377 5375 5372 5370 5367 5365 5363 5361 5359 5356 5354 5351 5348 5345 5342 5339 5337 5335 5332 5328 5325 5323 5320 5316 5313 5310 5307 5303 5298 5294 5290 5287 5284 5282 5280 5277 5275 5273 5270 5268 5265 5263 5261 5259 5257 5255 5253 5250 5248 5246 5244 5241 5239 5236 5234 5232 5230 5227 5225 5224 5223 5222 5221
5419 5417 5414 5412 5410 5407 5404 5401 5399 5396 5394 5391 5389 5387 5385 5382 5381 5379 5377 5375 5372 5370 5368 5366 5363 5361 5359 5357 5354 5352 5350 5347 5345 5343 5340 5338 5335 5332 5330 5327 5324 5321 5319 5316 5313 5310 5307 5303 5300 5297 5292 5288 5285 5282 5279 5278 5275 5273 5271 5268 5266 5263 5261 5258 5256 5254 5252 5250 5247 5245 5243 5241 5239 5236 5234 5231 5229 5226 5224 5222 5220 5218 5217 5217 5216
5410 5408 5405 5403 5400 5398 5395 5392 5390 5387 5384 5382 5380 5378 5375 5373 5371 5369 5367 5365 5363 5361 5359 5357 5355 5352 5350 5349 5346 5343 5341 5338 5336 5334 5332 5329 5327 5324 5322 5319 5317 5315 5312 5309 5306 5303 5300 5297 5294 5290 5286 5282 5279 5277 5275 5273 5271 5269 5266 5264 5261 5259 5256 5254 5252 5249 5247 5245 5243 5240 5238 5236 5234 5231 5229 5227 5224 5222 5219 5217 5215 5214 5213 5212 5211
5401 5399 5397 5394 5391 5388 5386 5383 5381 5378 5375 5373 5371 5368 5366 5364 5362 5359 5357 5355 5354 5352 5350 5348 5346 5343 5341 5340 5337 5335 5332 5330 5328 5326 5323 5320 5319 5317 5314 5311 5309 5307 5304 5302 5299 5296 5293 5290 5287 5284 5280 5277 5274 5272 5270 5268 5266 5264 5262 5259 5257 5254 5252 5250 5247 5245 5243 5240 5238 5236 5233 5231 5229 5227 5225 5222 5220 5217 5215 5213 5211 5209 5208 5207 5207
5392 5390 5388 5385 5382 5379 5377 5374 5372 5369 5366 5364 5361 5359 5357 5354 5352 5350 5348 5346 5344 5342 5340 5338 5336 5334 5331 5330 5328 5325 5324 5322 5319 5317 5314 5311 5310 5309 5306 5303 5301 5299 5296 5294 5292 5289 5286 5283 5280 5277 5274 5271 5269 5266 5265 5263 5261 5259 5257 5255 5253 5250 5248 5245 5243 5241 5238 5236 5234 5231 5229 5227 5225 5223 5221 5219 5216 5213 5211 5208 5207 5205 5204 5202 5202
5383 5381 5379 5376 5373 5370 5368 5365 5362 5360 5357 5355 5352 5349 5347 5345 5343 5341 5339 5337 5335 5333 5331 5329 5327 5324 5322 5319 5317 5315 5314 5312 5310 5308 5305 5303 5302 5300 5297 5295 5293 5291 5288 5286 5284 5281 5278 5276 5273 5270 5268 5265 5263 5261 5260 5258 5257 5255 5253 5251 5248 5246 5243 5241 5238 5236 5234 5232 5229 5227 5225 5223 5221 5218 5216 5214 5212 5210 5207 5205 5203 5201 5200 5198 5197
5374 5372 5369 5366 5364 5361 5358 5356 5353 5351 5348 5346 5343 5341 5338 5336 5334 5332 5329 5327 5325 5323 5322 5320 5318 5315 5312 5309 5307 5305 5303 5302 5301 5298 5295 5293 5292 5291 5288 5286 5285 5283 5281 5279 5277 5274 5271 5269 5266 5263 5261 5259 5257 5256 5255 5254 5252 5250 5248 5246 5244 5241 5239 5236 5234 5232 5230 5227 5225 5223 5221 5219 5217 5214 5212 5210 5208 5206 5204 5201 5199 5197 5196 5194 5193
5365 5362 5359 5357 5354 5352 5349 5347 5344 5341 5339 5336 5334 5331 5329 5327 5324 5322 5320 5318 5316 5314 5312 5310 5308 5305 5302 5298 5296 5294 5293 5292 5291 5288 5285 5283 5282 5281 5279 5278 5277 5275 5273 5271 5269 5267 5265 5262 5259 5257 5255 5253 5252 5251 5250 5249 5247 5245 5244 5241 5239 5237 5234 5232 5230 5228 5225 5223 5221 5219 5217 5215 5213 5210 5208 5206 5204 5202 5200 5198 5195 5193 5191 5190 5189
5355 5352 5350 5348 5345 5343 5340 5337 5334 5332 5329 5327 5324 5322 5319 5317 5315 5312 5310 5308 5306 5304 5301 5299 5297 5295 5291 5287 5285 5283 5283 5282 5280 5278 5276 5274 5272 5270 5270 5269 5268 5266 5265 5263 5261 5259 5257 5255 5253 5251 5249 5248 5247 5246 5245 5244 5242 5241 5239 5237 5234 5232 5230 5228 5226 5224 5221 5219 5217 5215 5213 5211 5209 5207 5204 5202 5200 5198 5196 5194 5192 5189 5187 5185 5184
5346 5343 5341 5338 5336 5333 5331 5328 5325 5322 5320 5317 5314 5312 5310 5307 5305 5302 5300 5297 5295 5292 5290 5288 5286 5283 5279 5276 5273 5271 5271 5271 5270 5268 5265 5263 5261 5261 5260 5260 5259 5258 5257 5255 5254 5252 5250 5248 5246 5245 5243 5242 5241 5241 5240 5239 5238 5236 5234 5232 5230 5228 5226 5224 5221 5219 5217 5215 5213 5211 5209 5207 5205 5203 5201 5198 5196 5194 5192 5190 5188 5186 5184 5181 5180
5337 5334 5331 5328 5326 5323 5321 5318 5315 5313 5310 5307 5304 5301 5299 5297 5294 5291 5289 5286 5283 5281 5278 5276 5274 5271 5268 5264 5261 5259 5258 5259 5258 5257 5255 5252 5250 5250 5250 5249 5249 5249 5248 5247 5246 5244 5243 5242 5240 5239 5237 5237 5236 5236 5235 5234 5233 5231 5229 5227 5225 5223 5221 5219 5217 5215 5213 5211 5209 5207 5205 5203 5201 5199 5197 5195 5193 5190 5188 5187 5185 5182 5180 5178 5176
5327 5324 5322 5319 5316 5313 5310 5308 5305 5302 5300 5297 5294 5291 5288 5285 5282 5280 5277 5274 5271 5268 5266 5263 5260 5258 5255 5252 5248 5246 5245 5245 5245 5245 5243 5241 5239 5239 5239 5239 5239 5240 5239 5239 5238 5237 5236 5235 5234 5233 5232 5231 5231 5230 5230 5229 5228 5226 5224 5223 5221 5219 5217 5215 5213 5211 5209 5207 5206 5204 5202 5200 5198 5196 5194 5192 5189 5187 5185 5183 5181 5179 5177 5174 5172
5317 5314 5312 5309 5306 5303 5300 5298 5295 5292 5289 5286 5283 5280 5277 5274 5271 5267 5264 5261 5258 5255 5252 5249 5246 5243 5241 5238 5235 5232 5230 5230 5230 5230 5230 5229 5228 5228 5228 5229 5229 5230 5231 5230 5230 5229 5228 5228 5227 5227 5226 5226 5225 5225 5224 5224 5223 5221 5219 5218 5217 5215 5213 5211 5209 5207 5205 5203 5202 5200 5198 5196 5194 5192 5190 5188 5186 5184 5182 5180 5178 5176 5174 5171 5169
5307 5304 5302 5299 5296 5293 5290 5287 5285 5282 5279 5275 5272 5269 5265 5262 5258 5254 5250 5247 5243 5240 5236 5233 5230 5226 5224 5221 5219 5216 5215 5214 5214 5215 5216 5216 5216 5217 5217 5218 5220 5221 5222 5222 5222 5221 5221 5221 5221 5221 5221 5221 5221 5220 5219 5219 5218 5216 5215 5213 5212 5211 5209 5207 5205 5203 5201 5200 5198 5196 5194 5193 5191 5189 5187 5185 5183 5181 5179 5177 5175 5173 5171 5168 5166
5297 5294 5291 5288 5286 5283 5280 5277 5274 5271 5268 5264 5260 5257 5253 5249 5245 5241 5236 5232 5227 5223 5220 5216 5213 5210 5207 5204 5202 5200 5199 5198 5199 5200 5202 5203 5204 5205 5207 5208 5210 5212 5213 5214 5214 5214 5214 5215 5215 5216 5216 5216 5216 5215 5215 5214 5213 5211 5210 5209 5207 5206 5205 5203 5201 5199 5197 5196 5194 5193 5191 5189 5187 5185 5183 5182 5180 5178 5176 5174 5171 5169 5167 5165 5163
5287 5284 5281 5279 5276 5273 5270 5267 5263 5260 5256 5253 5248 5244 5240 5235 5231 5226 5221 5217 5212 5208 5204 5200 5196 5193 5191 5188 5186 5184 5183 5183 5184 5186 5188 5190 5192 5194 5196 5198 5200 5203 5205 5206 5206 5207 5207 5208 5209 5210 5211 5212 5212 5211 5211 5210 5208 5207 5206 5204 5203 5202 5200 5198 5197 5195 5193 5192 5190 5189 5187 5185 5183 5181 5180 5178 5177 5175 5173 5171 5169 5167 5164 5162 5160
5277 5274 5272 5269 5266 5263 5260 5256 5253 5249 5245 5241 5237 5232 5227 5222 5217 5212 5208 5203 5198 5193 5189 5185 5181 5178 5175 5173 5171 5170 5169 5169 5170 5172 5175 5178 5181 5184 5186 5189 5191 5194 5196 5198 5199 5200 5201 5202 5204 5205 5206 5207 5207 5207 5206 5205 5204 5203 5201 5200 5199 5197 5196 5194 5193 5191 5189 5188 5186 5185 5183 5181 5180 5178 5176 5175 5173 5172 5170 5168 5166 5164 5162 5160 5158
5267 5265 5262 5259 5256 5253 5250 5246 5242 5239 5234 5229 5225 5220 5215 5210 5206 5201 5196 5190 5185 5181 5176 5172 5169 5166 5163 5161 5160 5159 5158 5158 5159 5160 5163 5167 5170 5174 5177 5181 5183 5186 5189 5191 5192 5194 5195 5197 5199 5200 5201 5202 5202 5202 5202 5201 5200 5198 5197 5196 5194 5193 5192 5190 5188 5187 5185 5184 5183 5181 5179 5178 5176 5174 5172 5171 5169 5168 5166 5165 5163 5161 5159 5157 5155
5258 5256 5253 5250 5247 5243 5240 5236 5232 5228 5223 5218 5213 5209 5204 5200 5196 5191 5185 5180 5175 5171 5166 5162 5158 5155 5153 5151 5150 5150 5149 5150 5150 5152 5155 5158 5162 5166 5170 5173 5176 5179 5182 5184 5186 5188 5190 5192 5194 5195 5196 5197 5197 5197 5197 5196 5195 5194 5193 5191 5190 5189 5187 5186 5184 5183 5181 5180 5179 5177 5176 5174 5173 5171 5169 5167 5166 5164 5163 5161 5159 5158 5156 5155 5153